Saint Simons Island, GA

6:05 AM EST on January 19, 2017 (GMT -0500)
McKinnon

Weather History for KSSI - April, 2013

Change the Weather History Date:

Thursday, April 4, 2013

  Actual Average Record
Temperature  
Mean Temperature 66 °F 64 °F  
Max Temperature 75 °F 73 °F 90 °F (2007)
Min Temperature 56 °F 56 °F 39 °F (1987)
Degree Days  
Heating Degree Days 0 3  
Month to date heating degree days 4 12  
Since 1 July heating degree days 1232 1440  
Cooling Degree Days 1 2  
Month to date cooling degree days 6 8  
Year to date cooling degree days 45 48  
Growing Degree Days 17 (Base 50)    
Moisture  
Dew Point 62 °F    
Average Humidity 82    
Maximum Humidity 100    
Minimum Humidity 64    
Precipitation  
Precipitation 0.36 in 0.09 in 0.99 in (1973)
Month to date precipitation 0.59 0.40  
Year to date precipitation 6.81 10.97  
Snow  
Snow 0.00 in - 0.00 in ()
Month to date snowfall 0.0  
Since 1 July snowfall 0.0  
Snow Depth 0.00 in    
Sea Level Pressure  
Sea Level Pressure 29.96 in    
Wind  
Wind Speed 10 mph (NE)    
Max Wind Speed 22 mph    
Max Gust Speed 36 mph    
Visibility 6 miles    
Events Rain    
T = Trace of Precipitation, MM = Missing Value Source: NWS Daily Summary

Daily Weather History Graph

Daily Weather History Graph

Search for Another Location

Airport or City:

Trip Planner

Search our weather history database for the weather conditions in past years. The results will help you decide how hot, cold, wet, or windy it might be!

Date:

Astronomy

Apr. 04, 2013 Rise Set
Actual Time 7:10 AM EDT 7:46 PM EDT
Civil Twilight 6:45 AM EDT 8:11 PM EDT
Nautical Twilight 6:17 AM EDT 8:40 PM EDT
Astronomical Twilight 5:47 AM EDT 9:09 PM EDT
Moon 3:14 AM EDT (4/4) 2:24 PM EDT (4/4)
Length of Visible Light 13h 25m
Length of Day
12h 36m
Waning Crescent, 34% of the Moon is Illuminated
Apr 4
Waning Crescent
Apr 10
New
Apr 18
First Quarter
Apr 25
Full
May 2
Last Quarter

Hourly Weather History & Observations

Time (EDT) Temp. Dew Point Humidity Pressure Visibility Wind Dir Wind Speed Gust Speed Precip Events Conditions
12:53 AM 61.0 °F 59.0 °F 93% 30.11 in 7.0 mi NE 12.7 mph 20.7 mph 0.00 in   Overcast
1:21 AM 60.8 °F 59.0 °F 94% 30.11 in 7.0 mi NE 13.8 mph - N/A   Overcast
1:53 AM 61.0 °F 59.0 °F 93% 30.10 in 7.0 mi NE 13.8 mph 23.0 mph 0.00 in Rain Light Rain
2:53 AM 60.1 °F 57.9 °F 93% 30.06 in 5.0 mi NE 15.0 mph 24.2 mph 0.02 in Rain Light Rain
3:29 AM 60.8 °F 57.2 °F 88% 30.06 in 2.5 mi NNE 10.4 mph 16.1 mph 0.07 in Rain Light Rain
3:37 AM 60.8 °F 57.2 °F 88% 30.06 in 3.0 mi NE 11.5 mph 21.9 mph 0.09 in Rain Light Rain
3:50 AM 59.0 °F 57.2 °F 94% 30.06 in 2.5 mi NE 13.8 mph 23.0 mph 0.13 in Rain Rain
3:53 AM 59.0 °F 57.9 °F 96% 30.06 in 2.5 mi NE 17.3 mph 23.0 mph 0.15 in Rain Rain
4:02 AM 59.0 °F 57.2 °F 94% 30.05 in 4.0 mi NE 17.3 mph 25.3 mph 0.01 in Rain Light Rain
4:53 AM 60.1 °F 57.9 °F 93% 30.02 in 6.0 mi ENE 17.3 mph 21.9 mph 0.02 in Rain Light Rain
5:53 AM 61.0 °F 60.1 °F 97% 30.01 in 5.0 mi ENE 13.8 mph - 0.02 in Rain Light Rain
6:35 AM 62.6 °F 60.8 °F 94% 30.01 in 2.5 mi ENE 10.4 mph - 0.05 in Rain Light Rain
6:42 AM 62.6 °F 60.8 °F 94% 30.02 in 4.0 mi ENE 10.4 mph - 0.05 in Rain Light Rain
6:53 AM 62.1 °F 61.0 °F 96% 30.02 in 5.0 mi ENE 9.2 mph - 0.05 in Rain Light Rain
7:43 AM 62.6 °F 62.6 °F 100% 30.01 in 5.0 mi NE 10.4 mph - 0.00 in   Overcast
7:53 AM 63.0 °F 62.1 °F 97% 30.01 in 4.0 mi ENE 11.5 mph - 0.00 in   Overcast
8:25 AM 62.6 °F 62.6 °F 100% 30.00 in 5.0 mi ENE 10.4 mph - N/A   Overcast
8:36 AM 62.6 °F 62.6 °F 100% 30.00 in 5.0 mi ENE 10.4 mph - N/A   Overcast
8:51 AM 62.6 °F 62.6 °F 100% 29.99 in 6.0 mi NE 10.4 mph - N/A   Overcast
8:53 AM 63.0 °F 62.1 °F 97% 29.99 in 6.0 mi NE 10.4 mph - N/A   Overcast
9:16 AM 64.4 °F 62.6 °F 94% 29.99 in 7.0 mi NE 9.2 mph - N/A   Overcast
9:27 AM 64.4 °F 62.6 °F 94% 29.99 in 7.0 mi ENE 6.9 mph - N/A   Overcast
9:53 AM 64.0 °F 62.1 °F 93% 29.98 in 7.0 mi ENE 6.9 mph - N/A   Overcast
10:53 AM 66.0 °F 64.0 °F 93% 29.97 in 6.0 mi ESE 6.9 mph - 0.00 in   Overcast
11:48 AM 66.2 °F 64.4 °F 94% 29.96 in 6.0 mi SE 5.8 mph - N/A   Overcast
11:53 AM 66.9 °F 64.9 °F 93% 29.96 in 6.0 mi Variable 5.8 mph - N/A   Overcast
12:53 PM 70.0 °F 66.0 °F 87% 29.93 in 7.0 mi South 8.1 mph - N/A   Mostly Cloudy
1:01 PM 69.8 °F 64.4 °F 83% 29.92 in 7.0 mi South 9.2 mph - N/A   Mostly Cloudy
1:20 PM 69.8 °F 64.4 °F 83% 29.91 in 8.0 mi SSE 8.1 mph - N/A   Partly Cloudy
1:53 PM 69.1 °F 64.9 °F 87% 29.91 in 8.0 mi South 6.9 mph - N/A   Partly Cloudy
2:45 PM 66.2 °F 64.4 °F 94% 29.88 in 7.0 mi South 10.4 mph - 0.00 in   Overcast
2:53 PM 66.9 °F 64.9 °F 93% 29.89 in 6.0 mi South 9.2 mph - 0.00 in   Overcast
3:53 PM 69.1 °F 64.9 °F 87% 29.86 in 9.0 mi South 6.9 mph - 0.00 in Rain Light Rain
4:53 PM 75.0 °F 64.0 °F 69% 29.85 in 10.0 mi SW 16.1 mph - 0.00 in   Partly Cloudy
5:53 PM 75.0 °F 63.0 °F 66% 29.85 in 10.0 mi SW 13.8 mph - N/A   Partly Cloudy
6:53 PM 73.0 °F 63.0 °F 71% 29.85 in 10.0 mi SW 12.7 mph - N/A   Partly Cloudy
7:53 PM 71.1 °F 64.0 °F 78% 29.85 in 10.0 mi WSW 9.2 mph - N/A   Overcast
8:12 PM 69.8 °F 66.2 °F 88% 29.86 in 5.0 mi NW 5.8 mph - 0.03 in Rain Light Rain
8:33 PM 68.0 °F 66.2 °F 94% 29.86 in 7.0 mi NW 4.6 mph - 0.05 in Rain Light Rain
8:53 PM 66.0 °F 64.0 °F 93% 29.88 in 7.0 mi NW 9.2 mph - 0.05 in   Overcast
9:53 PM 62.1 °F 61.0 °F 96% 29.92 in 5.0 mi NW 5.8 mph - 0.01 in Rain Light Rain
10:02 PM 62.6 °F 60.8 °F 94% 29.92 in 2.5 mi WNW 5.8 mph - 0.02 in Rain Light Rain
10:09 PM 62.6 °F 60.8 °F 94% 29.92 in 2.0 mi WNW 4.6 mph - 0.04 in Rain Light Rain
10:20 PM 62.6 °F 60.8 °F 94% 29.93 in 5.0 mi NW 6.9 mph - 0.04 in Rain Light Rain
10:31 PM 60.8 °F 60.8 °F 100% 29.93 in 6.0 mi NW 4.6 mph - 0.04 in   Overcast
10:53 PM 60.1 °F 59.0 °F 96% 29.93 in 6.0 mi NW 4.6 mph - 0.04 in Rain Light Rain
11:01 PM 60.8 °F 57.2 °F 88% 29.93 in 7.0 mi NW 6.9 mph - 0.00 in Rain Light Rain
11:19 PM 59.0 °F 57.2 °F 94% 29.93 in 5.0 mi NNW 5.8 mph - 0.00 in   Overcast
11:53 PM 57.9 °F 55.9 °F 93% 29.91 in 8.0 mi North 4.6 mph - 0.00 in   Overcast